Regional Weather Roundup
Issued by NWS Cleveland, OH

Home | Current Version | Previous Version | Text Only | Print | Product List | Glossary Off
Versions: 1 2 3 4 5 6 7 8 9 10 11 12 13 14 15 16 17 18 19 20 21 22 23 24 25 26 27 28 29 30 31 32 33 34 35 36 37 38 39 40 41 42 43 44 45 46 47 48 49 50

000
ASUS41 KCLE 230300
RWRCLE
OHIO REGIONAL WEATHER ROUNDUP
NATIONAL WEATHER SERVICE WILMINGTON, OH
1100 PM EDT SUN APR 22 2018

NOTE: "FAIR" INDICATES FEW OR NO CLOUDS BELOW 12,000 FEET WITH NO
SIGNIFICANT WEATHER AND/OR OBSTRUCTIONS TO VISIBILITY.

OHZ001>008-015>018-024>027-034-035-043-044-230400-
   NORTHWEST OHIO

CITY           SKY/WX    TMP DP  RH WIND       PRES   REMARKS
DEFIANCE       FAIR      46  23  40 NE8       30.28F
FINDLAY        FAIR      50  21  32 E14       30.25F
TOLEDO EXPRESS FAIR      45  26  47 NE7       30.30S
TOLEDO EXEC    FAIR      44  30  57 NE6       30.31S
LIMA           FAIR      45  25  45 NE9       30.24F
$$

OHZ009>014-019>023-028>033-038-089-230400-
   NORTHEAST OHIO

CITY           SKY/WX    TMP DP  RH WIND       PRES   REMARKS
CLE-HOPKINS    FAIR      51  23  33 NE8       30.31F
CLE-LAKEFRONT  FAIR      50  25  37 NE7       30.28F
CUY CO. ARPT   CLEAR     52  21  30 E9        30.31S
LORAIN-ELYRIA  FAIR      45  24  43 NE13      30.28F
ASHTABULA      FAIR      49  21  33 NE6       30.32S
AKRON-CANTON   FAIR      51  24  34 NE13      30.27F
WOOSTER        NOT AVBL
MANSFIELD      FAIR      47  25  42 NE7       30.26F
YOUNGSTOWN     FAIR      49  26  41 NE9       30.28F
$$

OHZ042-051>053-060>062-070>072-077>081-230400-
  SOUTHWEST OHIO

CITY           SKY/WX    TMP DP  RH WIND       PRES   REMARKS
CINC-COVINGTON MOCLDY    60  28  29 E14       30.14S
CINC-LUNKEN    FAIR      54  36  50 CALM      30.15F
HAMILTON       FAIR      55  34  45 NE3       30.17S
DAYTON         NOT AVBL
WRIGHT-PAT AFB NOT AVBL
DAYTON GENERAL FAIR      57  30  35 NE12      30.15F
WILMINGTON     FAIR      54  33  45 E10       30.17F
$$

OHZ036-037-039>041-045>050-054>059-063>069-073>076-082>088-230400-
  CENTRAL AND SOUTHEAST OHIO

CITY           SKY/WX    TMP DP  RH WIND       PRES   REMARKS
COLUMBUS       FAIR      56  27  32 NE7       30.20F
OSU AIRPORT    FAIR      54  29  38 NE9       30.21S
BOLTON FIELD   FAIR      52  31  45 NE5       30.21S
RICKENBACK AFB NOT AVBL
NEWARK         FAIR      53  31  42 NE3       30.20F
MARION         FAIR      44  28  53 NE10      30.24F
LANCASTER      FAIR      55  34  45 E7        30.20F
ZANESVILLE     FAIR      56  28  34 NE3       30.21
NEW PHILLY     FAIR      49  35  58 CALM      30.26R
$$



USA.gov is the U.S. government's official web portal to all federal, state and local government web resources and services.